Time,TemperatureF,DewpointF,PressureIn,WindDirection,WindDirectionDegrees,WindSpeedMPH,WindSpeedGustMPH,Humidity,HourlyPrecipIn,Conditions,Clouds,dailyrainin,SoftwareType,DateUTC
2013-10-19 00:03:00,59.1,21.3,25.01,SSW,206,7.0,-999.0,23,-99.99,,,-99.99,dwt +perl,2013-10-19 07:03:00,
2013-10-19 00:08:00,59.1,21.3,25.01,SSW,195,7.0,-999.0,23,-99.99,,,-99.99,dwt +perl,2013-10-19 07:08:00,
2013-10-19 00:13:00,59.0,21.3,25.01,South,187,8.0,-999.0,23,-99.99,,,-99.99,dwt +perl,2013-10-19 07:13:00,
2013-10-19 00:18:00,58.9,21.2,25.01,SSW,195,10.0,-999.0,23,-99.99,,,-99.99,dwt +perl,2013-10-19 07:18:00,
2013-10-19 00:23:00,58.7,21.0,25.01,SSW,199,7.0,-999.0,23,-99.99,,,-99.99,dwt +perl,2013-10-19 07:23:00,
2013-10-19 00:28:00,58.8,21.1,25.01,South,191,10.0,-999.0,23,-99.99,,,-99.99,dwt +perl,2013-10-19 07:28:00,
2013-10-19 00:33:00,58.9,21.2,25.01,SSW,202,8.0,-999.0,23,-99.99,,,-99.99,dwt +perl,2013-10-19 07:33:00,
2013-10-19 00:38:00,58.9,21.2,25.01,SW,215,12.0,-999.0,23,-99.99,,,-99.99,dwt +perl,2013-10-19 07:38:00,
2013-10-19 00:43:00,58.9,21.2,25.01,South,191,12.0,-999.0,23,-99.99,,,-99.99,dwt +perl,2013-10-19 07:43:00,
2013-10-19 00:48:00,58.9,21.2,25.01,SSW,198,8.0,-999.0,23,-99.99,,,-99.99,dwt +perl,2013-10-19 07:48:00,
2013-10-19 00:53:00,58.9,21.2,25.01,SW,222,9.0,-999.0,23,-99.99,,,-99.99,dwt +perl,2013-10-19 07:53:00,
2013-10-19 00:58:00,58.8,22.1,25.01,SSW,192,6.0,-999.0,24,-99.99,,,-99.99,dwt +perl,2013-10-19 07:58:00,
2013-10-19 01:03:00,59.0,22.3,25.01,SSW,197,7.0,-999.0,24,-99.99,,,-99.99,dwt +perl,2013-10-19 08:03:00,
2013-10-19 01:08:00,59.2,22.4,25.01,SSW,194,9.0,-999.0,24,-99.99,,,-99.99,dwt +perl,2013-10-19 08:08:00,
2013-10-19 01:13:00,59.4,22.6,25.01,South,187,8.0,-999.0,24,-99.99,,,-99.99,dwt +perl,2013-10-19 08:13:00,
2013-10-19 01:18:00,59.5,22.7,25.01,SSW,193,5.0,-999.0,24,-99.99,,,-99.99,dwt +perl,2013-10-19 08:18:00,
2013-10-19 01:23:00,59.6,22.8,25.01,South,187,8.0,-999.0,24,-99.99,,,-99.99,dwt +perl,2013-10-19 08:23:00,
2013-10-19 01:28:00,59.7,22.9,25.01,SSW,201,7.0,-999.0,24,-99.99,,,-99.99,dwt +perl,2013-10-19 08:28:00,
2013-10-19 01:33:00,59.8,22.9,25.01,South,178,9.0,-999.0,24,-99.99,,,-99.99,dwt +perl,2013-10-19 08:33:00,
2013-10-19 01:38:00,59.8,22.9,25.01,South,186,8.0,-999.0,24,-99.99,,,-99.99,dwt +perl,2013-10-19 08:38:00,
2013-10-19 01:43:00,59.9,23.0,25.01,South,181,8.0,-999.0,24,-99.99,,,-99.99,dwt +perl,2013-10-19 08:43:00,
2013-10-19 01:48:00,60.3,23.4,25.01,South,170,8.0,-999.0,24,-99.99,,,-99.99,dwt +perl,2013-10-19 08:48:00,
2013-10-19 01:53:00,60.3,23.4,25.02,SSE,156,6.0,-999.0,24,-99.99,,,-99.99,dwt +perl,2013-10-19 08:53:00,
2013-10-19 01:58:00,60.2,22.3,25.02,South,170,11.0,-999.0,23,-99.99,,,-99.99,dwt +perl,2013-10-19 08:58:00,
2013-10-19 02:03:00,60.2,22.3,25.01,South,174,9.0,-999.0,23,-99.99,,,-99.99,dwt +perl,2013-10-19 09:03:00,
2013-10-19 02:08:00,60.3,22.4,25.01,South,184,6.0,-999.0,23,-99.99,,,-99.99,dwt +perl,2013-10-19 09:08:00,
2013-10-19 02:13:00,60.6,22.6,25.01,South,174,6.0,-999.0,23,-99.99,,,-99.99,dwt +perl,2013-10-19 09:13:00,
2013-10-19 02:18:00,60.6,22.6,25.01,SSE,152,5.0,-999.0,23,-99.99,,,-99.99,dwt +perl,2013-10-19 09:18:00,
2013-10-19 02:23:00,60.6,22.6,25.01,South,185,10.0,-999.0,23,-99.99,,,-99.99,dwt +perl,2013-10-19 09:23:00,
2013-10-19 02:28:00,60.6,22.6,25.01,SE,133,8.0,-999.0,23,-99.99,,,-99.99,dwt +perl,2013-10-19 09:28:00,
2013-10-19 02:33:00,60.5,22.5,25.01,SE,133,10.0,-999.0,23,-99.99,,,-99.99,dwt +perl,2013-10-19 09:33:00,
2013-10-19 02:38:00,60.5,22.5,25.01,ESE,114,11.0,-999.0,23,-99.99,,,-99.99,dwt +perl,2013-10-19 09:38:00,
2013-10-19 02:43:00,60.6,22.6,25.01,ESE,115,12.0,-999.0,23,-99.99,,,-99.99,dwt +perl,2013-10-19 09:43:00,
2013-10-19 02:48:00,60.5,22.5,25.01,SE,137,6.0,-999.0,23,-99.99,,,-99.99,dwt +perl,2013-10-19 09:48:00,
2013-10-19 02:53:00,60.5,22.5,25.01,SE,142,6.0,-999.0,23,-99.99,,,-99.99,dwt +perl,2013-10-19 09:53:00,
2013-10-19 02:58:00,60.4,22.4,25.01,SE,141,8.0,-999.0,23,-99.99,,,-99.99,dwt +perl,2013-10-19 09:58:00,
2013-10-19 03:03:00,60.4,22.4,25.01,SE,133,7.0,-999.0,23,-99.99,,,-99.99,dwt +perl,2013-10-19 10:03:00,
2013-10-19 03:08:00,60.3,22.4,25.01,SE,135,4.0,-999.0,23,-99.99,,,-99.99,dwt +perl,2013-10-19 10:08:00,
2013-10-19 03:13:00,60.2,22.3,25.01,SE,131,6.0,-999.0,23,-99.99,,,-99.99,dwt +perl,2013-10-19 10:13:00,
2013-10-19 03:18:00,60.2,22.3,25.01,SE,127,8.0,-999.0,23,-99.99,,,-99.99,dwt +perl,2013-10-19 10:18:00,
2013-10-19 03:23:00,60.3,21.3,25.00,SE,135,5.0,-999.0,22,-99.99,,,-99.99,dwt +perl,2013-10-19 10:23:00,
2013-10-19 03:28:00,60.4,22.4,25.00,SE,135,5.0,-999.0,23,-99.99,,,-99.99,dwt +perl,2013-10-19 10:28:00,
2013-10-19 03:33:00,60.4,22.4,25.00,ESE,122,10.0,-999.0,23,-99.99,,,-99.99,dwt +perl,2013-10-19 10:33:00,
2013-10-19 03:38:00,60.3,22.4,25.00,ESE,120,8.0,-999.0,23,-99.99,,,-99.99,dwt +perl,2013-10-19 10:38:00,
2013-10-19 03:48:00,59.9,22.0,25.00,ESE,114,5.0,-999.0,23,-99.99,,,-99.99,dwt +perl,2013-10-19 10:48:00,
2013-10-19 03:53:00,59.6,22.8,25.00,ESE,113,7.0,-999.0,24,-99.99,,,-99.99,dwt +perl,2013-10-19 10:53:00,
2013-10-19 03:54:00,60.3,22.4,25.00,SE,127,6.0,-999.0,23,-99.99,,,-99.99,dwt +perl,2013-10-19 10:54:00,
2013-10-19 03:58:00,59.5,22.7,25.00,East,99,7.0,-999.0,24,-99.99,,,-99.99,dwt +perl,2013-10-19 10:58:00,
2013-10-19 04:03:00,59.4,22.6,25.00,ENE,73,1.0,-999.0,24,-99.99,,,-99.99,dwt +perl,2013-10-19 11:03:00,
2013-10-19 04:08:00,59.6,22.8,25.00,SE,129,5.0,-999.0,24,-99.99,,,-99.99,dwt +perl,2013-10-19 11:08:00,
2013-10-19 04:13:00,59.8,22.9,25.00,SE,128,7.0,-999.0,24,-99.99,,,-99.99,dwt +perl,2013-10-19 11:13:00,
2013-10-19 04:18:00,59.9,23.0,25.00,ESE,118,8.0,-999.0,24,-99.99,,,-99.99,dwt +perl,2013-10-19 11:18:00,
2013-10-19 04:23:00,59.8,22.9,25.00,SE,129,10.0,-999.0,24,-99.99,,,-99.99,dwt +perl,2013-10-19 11:23:00,
2013-10-19 04:28:00,59.6,23.7,25.00,ESE,116,10.0,-999.0,25,-99.99,,,-99.99,dwt +perl,2013-10-19 11:28:00,
2013-10-19 04:33:00,59.4,23.6,25.00,SE,135,6.0,-999.0,25,-99.99,,,-99.99,dwt +perl,2013-10-19 11:33:00,
2013-10-19 04:38:00,59.3,24.4,25.00,ESE,116,8.0,-999.0,26,-99.99,,,-99.99,dwt +perl,2013-10-19 11:38:00,
2013-10-19 04:48:00,59.1,24.2,25.00,SE,130,9.0,-999.0,26,-99.99,,,-99.99,dwt +perl,2013-10-19 11:48:00,
2013-10-19 04:53:00,59.1,24.2,25.00,ESE,108,9.0,-999.0,26,-99.99,,,-99.99,dwt +perl,2013-10-19 11:53:00,
2013-10-19 04:54:00,59.2,24.3,25.00,East,99,3.0,-999.0,26,-99.99,,,-99.99,dwt +perl,2013-10-19 11:54:00,
2013-10-19 04:58:00,59.0,24.2,25.00,SE,129,6.0,-999.0,26,-99.99,,,-99.99,dwt +perl,2013-10-19 11:58:00,
2013-10-19 05:03:00,59.0,24.2,25.00,ESE,117,5.0,-999.0,26,-99.99,,,-99.99,dwt +perl,2013-10-19 12:03:00,
2013-10-19 05:08:00,58.9,24.1,25.00,ESE,122,8.0,-999.0,26,-99.99,,,-99.99,dwt +perl,2013-10-19 12:08:00,
2013-10-19 05:13:00,58.8,24.0,25.00,SE,129,6.0,-999.0,26,-99.99,,,-99.99,dwt +perl,2013-10-19 12:13:00,
2013-10-19 05:18:00,58.7,23.9,25.00,ESE,112,7.0,-999.0,26,-99.99,,,-99.99,dwt +perl,2013-10-19 12:18:00,
2013-10-19 05:28:00,58.8,24.0,25.00,SE,133,5.0,-999.0,26,-99.99,,,-99.99,dwt +perl,2013-10-19 12:28:00,
2013-10-19 05:33:00,58.9,25.0,25.00,SE,127,8.0,-999.0,27,-99.99,,,-99.99,dwt +perl,2013-10-19 12:33:00,
2013-10-19 05:34:00,58.7,23.9,25.00,ESE,104,9.0,-999.0,26,-99.99,,,-99.99,dwt +perl,2013-10-19 12:34:00,
2013-10-19 05:38:00,58.9,24.1,25.00,ESE,123,5.0,-999.0,26,-99.99,,,-99.99,dwt +perl,2013-10-19 12:38:00,
2013-10-19 05:48:00,58.9,24.1,25.00,ESE,121,4.0,-999.0,26,-99.99,,,-99.99,dwt +perl,2013-10-19 12:48:00,
2013-10-19 05:54:00,59.0,24.2,25.00,SE,129,7.0,-999.0,26,-99.99,,,-99.99,dwt +perl,2013-10-19 12:54:00,
2013-10-19 06:03:00,58.7,23.9,25.01,SE,124,5.0,-999.0,26,-99.99,,,-99.99,dwt +perl,2013-10-19 13:03:00,
2013-10-19 06:04:00,58.6,23.8,25.01,ESE,122,8.0,-999.0,26,-99.99,,,-99.99,dwt +perl,2013-10-19 13:04:00,
2013-10-19 06:08:00,58.7,23.9,25.01,ESE,118,7.0,-999.0,26,-99.99,,,-99.99,dwt +perl,2013-10-19 13:08:00,
2013-10-19 06:09:00,58.6,23.8,25.01,SE,125,7.0,-999.0,26,-99.99,,,-99.99,dwt +perl,2013-10-19 13:09:00,
2013-10-19 06:13:00,58.7,23.9,25.01,SE,129,6.0,-999.0,26,-99.99,,,-99.99,dwt +perl,2013-10-19 13:13:00,
2013-10-19 06:18:00,58.7,23.9,25.01,ESE,123,5.0,-999.0,26,-99.99,,,-99.99,dwt +perl,2013-10-19 13:18:00,
2013-10-19 06:33:00,58.6,23.8,25.01,ESE,112,7.0,-999.0,26,-99.99,,,-99.99,dwt +perl,2013-10-19 13:33:00,
2013-10-19 06:34:00,58.7,23.9,25.01,East,97,6.0,-999.0,26,-99.99,,,-99.99,dwt +perl,2013-10-19 13:34:00,
2013-10-19 06:38:00,58.6,23.8,25.01,ESE,114,7.0,-999.0,26,-99.99,,,-99.99,dwt +perl,2013-10-19 13:38:00,
2013-10-19 06:39:00,58.6,23.8,25.01,ESE,122,8.0,-999.0,26,-99.99,,,-99.99,dwt +perl,2013-10-19 13:39:00,
2013-10-19 06:43:00,58.5,23.7,25.01,East,97,6.0,-999.0,26,-99.99,,,-99.99,dwt +perl,2013-10-19 13:43:00,
2013-10-19 06:59:00,58.4,24.6,25.01,ESE,122,8.0,-999.0,27,-99.99,,,-99.99,dwt +perl,2013-10-19 13:59:00,
2013-10-19 07:04:00,58.5,25.5,25.01,ESE,111,8.0,-999.0,28,-99.99,,,-99.99,dwt +perl,2013-10-19 14:04:00,
2013-10-19 07:09:00,58.5,25.5,25.01,SE,124,8.0,-999.0,28,-99.99,,,-99.99,dwt +perl,2013-10-19 14:09:00,
2013-10-19 07:13:00,58.4,26.3,25.01,ESE,116,8.0,-999.0,29,-99.99,,,-99.99,dwt +perl,2013-10-19 14:13:00,
2013-10-19 07:14:00,58.4,26.3,25.01,ESE,117,4.0,-999.0,29,-99.99,,,-99.99,dwt +perl,2013-10-19 14:14:00,
2013-10-19 07:19:00,58.3,26.2,25.01,ESE,116,5.0,-999.0,29,-99.99,,,-99.99,dwt +perl,2013-10-19 14:19:00,
2013-10-19 07:23:00,58.8,25.8,25.01,SE,127,7.0,-999.0,28,-99.99,,,-99.99,dwt +perl,2013-10-19 14:23:00,
2013-10-19 07:28:00,59.0,25.9,25.01,SE,135,5.0,-999.0,28,-99.99,,,-99.99,dwt +perl,2013-10-19 14:28:00,
2013-10-19 07:29:00,58.5,26.4,25.01,SE,129,7.0,-999.0,29,-99.99,,,-99.99,dwt +perl,2013-10-19 14:29:00,
2013-10-19 07:38:00,59.6,25.6,25.02,SE,132,8.0,-999.0,27,-99.99,,,-99.99,dwt +perl,2013-10-19 14:38:00,
2013-10-19 07:43:00,59.8,25.8,25.02,SE,126,7.0,-999.0,27,-99.99,,,-99.99,dwt +perl,2013-10-19 14:43:00,
2013-10-19 07:44:00,59.3,25.3,25.02,SE,129,6.0,-999.0,27,-99.99,,,-99.99,dwt +perl,2013-10-19 14:44:00,
2013-10-19 07:53:00,60.0,25.0,25.02,SE,135,8.0,-999.0,26,-99.99,,,-99.99,dwt +perl,2013-10-19 14:53:00,
2013-10-19 07:58:00,60.2,25.2,25.02,SE,126,3.0,-999.0,26,-99.99,,,-99.99,dwt +perl,2013-10-19 14:58:00,
2013-10-19 07:59:00,59.9,24.9,25.02,SE,134,4.0,-999.0,26,-99.99,,,-99.99,dwt +perl,2013-10-19 14:59:00,
2013-10-19 08:14:00,60.4,26.3,25.02,SE,132,8.0,-999.0,27,-99.99,,,-99.99,dwt +perl,2013-10-19 15:14:00,
2013-10-19 08:19:00,60.6,25.5,25.02,SE,131,6.0,-999.0,26,-99.99,,,-99.99,dwt +perl,2013-10-19 15:19:00,
2013-10-19 08:24:00,60.7,25.6,25.02,ESE,111,1.0,-999.0,26,-99.99,,,-99.99,dwt +perl,2013-10-19 15:24:00,
2013-10-19 08:29:00,61.0,25.9,25.02,SE,129,6.0,-999.0,26,-99.99,,,-99.99,dwt +perl,2013-10-19 15:29:00,
2013-10-19 08:34:00,61.3,26.1,25.03,SE,125,3.0,-999.0,26,-99.99,,,-99.99,dwt +perl,2013-10-19 15:34:00,
2013-10-19 08:39:00,61.7,26.5,25.03,ESE,112,2.0,-999.0,26,-99.99,,,-99.99,dwt +perl,2013-10-19 15:39:00,
2013-10-19 08:43:00,62.9,23.5,25.03,SE,143,6.0,-999.0,22,-99.99,,,-99.99,dwt +perl,2013-10-19 15:43:00,
2013-10-19 08:44:00,62.1,25.9,25.03,ESE,106,1.0,-999.0,25,-99.99,,,-99.99,dwt +perl,2013-10-19 15:44:00,
2013-10-19 08:49:00,62.5,26.2,25.03,ESE,102,3.0,-999.0,25,-99.99,,,-99.99,dwt +perl,2013-10-19 15:49:00,
2013-10-19 08:53:00,63.3,22.7,25.03,East,93,2.0,-999.0,21,-99.99,,,-99.99,dwt +perl,2013-10-19 15:53:00,
2013-10-19 08:59:00,63.0,23.6,25.03,SE,146,4.0,-999.0,22,-99.99,,,-99.99,dwt +perl,2013-10-19 15:59:00,
2013-10-19 09:09:00,63.5,24.0,25.03,South,185,6.0,-999.0,22,-99.99,,,-99.99,dwt +perl,2013-10-19 16:09:00,
2013-10-19 09:13:00,64.6,23.8,25.03,South,188,2.0,-999.0,21,-99.99,,,-99.99,dwt +perl,2013-10-19 16:13:00,
2013-10-19 09:14:00,63.9,26.4,25.03,SSE,163,3.0,-999.0,24,-99.99,,,-99.99,dwt +perl,2013-10-19 16:14:00,
2013-10-19 09:19:00,64.2,22.3,25.03,SSW,197,3.0,-999.0,20,-99.99,,,-99.99,dwt +perl,2013-10-19 16:19:00,
2013-10-19 09:29:00,65.1,21.8,25.03,SSE,147,4.0,-999.0,19,-99.99,,,-99.99,dwt +perl,2013-10-19 16:29:00,
2013-10-19 09:34:00,65.2,21.9,25.03,SE,130,5.0,-999.0,19,-99.99,,,-99.99,dwt +perl,2013-10-19 16:34:00,
2013-10-19 09:38:00,65.8,21.1,25.03,South,187,3.0,-999.0,18,-99.99,,,-99.99,dwt +perl,2013-10-19 16:38:00,
2013-10-19 09:39:00,65.4,22.1,25.03,ESE,115,1.0,-999.0,19,-99.99,,,-99.99,dwt +perl,2013-10-19 16:39:00,
2013-10-19 09:44:00,65.7,21.0,25.03,SSE,162,1.0,-999.0,18,-99.99,,,-99.99,dwt +perl,2013-10-19 16:44:00,
2013-10-19 09:54:00,65.9,21.2,25.03,South,186,10.0,-999.0,18,-99.99,,,-99.99,dwt +perl,2013-10-19 16:54:00,
2013-10-19 09:59:00,65.8,21.1,25.03,SSE,164,2.0,-999.0,18,-99.99,,,-99.99,dwt +perl,2013-10-19 16:59:00,
2013-10-19 10:04:00,65.8,21.1,25.03,South,180,4.0,-999.0,18,-99.99,,,-99.99,dwt +perl,2013-10-19 17:04:00,
2013-10-19 10:09:00,66.0,22.6,25.03,South,171,6.0,-999.0,19,-99.99,,,-99.99,dwt +perl,2013-10-19 17:09:00,
2013-10-19 10:14:00,66.6,21.8,25.03,SSE,154,3.0,-999.0,18,-99.99,,,-99.99,dwt +perl,2013-10-19 17:14:00,
2013-10-19 10:19:00,66.7,21.9,25.03,South,177,3.0,-999.0,18,-99.99,,,-99.99,dwt +perl,2013-10-19 17:19:00,
2013-10-19 10:24:00,66.6,21.8,25.03,SE,129,4.0,-999.0,18,-99.99,,,-99.99,dwt +perl,2013-10-19 17:24:00,
2013-10-19 10:29:00,66.6,21.8,25.03,SSW,197,0.0,-999.0,18,-99.99,,,-99.99,dwt +perl,2013-10-19 17:29:00,
2013-10-19 10:34:00,66.8,21.9,25.03,SSE,150,3.0,-999.0,18,-99.99,,,-99.99,dwt +perl,2013-10-19 17:34:00,
2013-10-19 10:39:00,67.1,23.5,25.03,SSW,198,1.0,-999.0,19,-99.99,,,-99.99,dwt +perl,2013-10-19 17:39:00,
2013-10-19 10:44:00,67.4,22.4,25.03,South,184,3.0,-999.0,18,-99.99,,,-99.99,dwt +perl,2013-10-19 17:44:00,
2013-10-19 10:49:00,67.7,22.7,25.03,SE,132,2.0,-999.0,18,-99.99,,,-99.99,dwt +perl,2013-10-19 17:49:00,
2013-10-19 10:54:00,67.5,22.5,25.03,SE,130,3.0,-999.0,18,-99.99,,,-99.99,dwt +perl,2013-10-19 17:54:00,
2013-10-19 10:59:00,67.4,23.7,25.03,SSE,157,2.0,-999.0,19,-99.99,,,-99.99,dwt +perl,2013-10-19 17:59:00,
2013-10-19 11:04:00,67.6,23.9,25.03,SSW,201,1.0,-999.0,19,-99.99,,,-99.99,dwt +perl,2013-10-19 18:04:00,
2013-10-19 11:09:00,68.0,24.2,25.03,SSW,199,1.0,-999.0,19,-99.99,,,-99.99,dwt +perl,2013-10-19 18:09:00,
2013-10-19 11:14:00,68.0,25.4,25.03,ESE,108,1.0,-999.0,20,-99.99,,,-99.99,dwt +perl,2013-10-19 18:14:00,
2013-10-19 11:18:00,68.7,24.8,25.03,SSW,199,4.0,-999.0,19,-99.99,,,-99.99,dwt +perl,2013-10-19 18:18:00,
2013-10-19 11:19:00,68.2,26.8,25.03,ENE,71,1.0,-999.0,21,-99.99,,,-99.99,dwt +perl,2013-10-19 18:19:00,
2013-10-19 11:24:00,68.8,24.9,25.03,South,190,5.0,-999.0,19,-99.99,,,-99.99,dwt +perl,2013-10-19 18:24:00,
2013-10-19 11:34:00,68.7,24.8,25.03,SW,224,0.0,-999.0,19,-99.99,,,-99.99,dwt +perl,2013-10-19 18:34:00,
2013-10-19 11:39:00,68.9,23.6,25.03,SSW,207,1.0,-999.0,18,-99.99,,,-99.99,dwt +perl,2013-10-19 18:39:00,
2013-10-19 11:44:00,68.9,26.2,25.03,South,181,2.0,-999.0,20,-99.99,,,-99.99,dwt +perl,2013-10-19 18:44:00,
2013-10-19 11:49:00,69.5,24.1,25.03,SSW,206,0.0,-999.0,18,-99.99,,,-99.99,dwt +perl,2013-10-19 18:49:00,
2013-10-19 11:54:00,69.6,22.9,25.03,South,177,1.0,-999.0,17,-99.99,,,-99.99,dwt +perl,2013-10-19 18:54:00,
2013-10-19 11:59:00,69.4,22.7,25.03,SW,215,3.0,-999.0,17,-99.99,,,-99.99,dwt +perl,2013-10-19 18:59:00,
2013-10-19 12:04:00,69.3,22.6,25.03,ESE,115,1.0,-999.0,17,-99.99,,,-99.99,dwt +perl,2013-10-19 19:04:00,
2013-10-19 12:09:00,69.4,21.3,25.03,SW,216,0.0,-999.0,16,-99.99,,,-99.99,dwt +perl,2013-10-19 19:09:00,
2013-10-19 12:14:00,69.3,21.2,25.03,SW,218,6.0,-999.0,16,-99.99,,,-99.99,dwt +perl,2013-10-19 19:14:00,
2013-10-19 12:19:00,69.0,22.4,25.03,WSW,243,1.0,-999.0,17,-99.99,,,-99.99,dwt +perl,2013-10-19 19:19:00,
2013-10-19 12:24:00,69.0,17.8,25.03,SSE,160,3.0,-999.0,14,-99.99,,,-99.99,dwt +perl,2013-10-19 19:24:00,
2013-10-19 12:29:00,68.6,20.6,25.03,South,191,4.0,-999.0,16,-99.99,,,-99.99,dwt +perl,2013-10-19 19:29:00,
2013-10-19 12:34:00,68.7,20.7,25.03,South,185,3.0,-999.0,16,-99.99,,,-99.99,dwt +perl,2013-10-19 19:34:00,
2013-10-19 12:39:00,68.8,22.2,25.03,SW,235,2.0,-999.0,17,-99.99,,,-99.99,dwt +perl,2013-10-19 19:39:00,
2013-10-19 12:44:00,68.5,23.3,25.02,SSW,209,1.0,-999.0,18,-99.99,,,-99.99,dwt +perl,2013-10-19 19:44:00,
2013-10-19 12:49:00,69.2,23.9,25.03,WSW,239,1.0,-999.0,18,-99.99,,,-99.99,dwt +perl,2013-10-19 19:49:00,
2013-10-19 12:54:00,68.9,23.6,25.02,SW,228,5.0,-999.0,18,-99.99,,,-99.99,dwt +perl,2013-10-19 19:54:00,
2013-10-19 12:59:00,69.2,23.9,25.02,South,184,1.0,-999.0,18,-99.99,,,-99.99,dwt +perl,2013-10-19 19:59:00,
2013-10-19 13:04:00,69.7,22.9,25.02,SSE,167,4.0,-999.0,17,-99.99,,,-99.99,dwt +perl,2013-10-19 20:04:00,
2013-10-19 13:09:00,70.1,23.3,25.02,South,187,8.0,-999.0,17,-99.99,,,-99.99,dwt +perl,2013-10-19 20:09:00,
2013-10-19 13:13:00,70.0,23.2,25.01,SW,222,1.0,-999.0,17,-99.99,,,-99.99,dwt +perl,2013-10-19 20:13:00,
2013-10-19 13:14:00,70.2,21.9,25.02,SSW,195,1.0,-999.0,16,-99.99,,,-99.99,dwt +perl,2013-10-19 20:14:00,
2013-10-19 13:19:00,70.0,23.2,25.01,SW,216,0.0,-999.0,17,-99.99,,,-99.99,dwt +perl,2013-10-19 20:19:00,
2013-10-19 13:29:00,70.4,26.2,25.01,SW,218,0.0,-999.0,19,-99.99,,,-99.99,dwt +perl,2013-10-19 20:29:00,
2013-10-19 13:34:00,71.0,25.4,25.01,South,173,0.0,-999.0,18,-99.99,,,-99.99,dwt +perl,2013-10-19 20:34:00,
2013-10-19 13:39:00,71.7,23.1,25.01,SSW,196,2.0,-999.0,16,-99.99,,,-99.99,dwt +perl,2013-10-19 20:39:00,
2013-10-19 13:44:00,72.0,26.2,25.01,SSW,196,1.0,-999.0,18,-99.99,,,-99.99,dwt +perl,2013-10-19 20:44:00,
2013-10-19 13:49:00,72.6,25.3,25.00,SSW,196,0.0,-999.0,17,-99.99,,,-99.99,dwt +perl,2013-10-19 20:49:00,
2013-10-19 13:54:00,72.5,26.6,25.00,NE,39,4.0,-999.0,18,-99.99,,,-99.99,dwt +perl,2013-10-19 20:54:00,
2013-10-19 13:59:00,71.7,25.9,25.00,NE,45,0.0,-999.0,18,-99.99,,,-99.99,dwt +perl,2013-10-19 20:59:00,
2013-10-19 14:04:00,71.4,25.7,25.00,NNE,20,1.0,-999.0,18,-99.99,,,-99.99,dwt +perl,2013-10-19 21:04:00,
2013-10-19 14:09:00,71.6,25.9,25.00,SSW,209,0.0,-999.0,18,-99.99,,,-99.99,dwt +perl,2013-10-19 21:09:00,
2013-10-19 14:14:00,71.2,26.8,25.00,NE,49,0.0,-999.0,19,-99.99,,,-99.99,dwt +perl,2013-10-19 21:14:00,
2013-10-19 14:19:00,70.9,26.6,25.00,NE,53,0.0,-999.0,19,-99.99,,,-99.99,dwt +perl,2013-10-19 21:19:00,
2013-10-19 14:24:00,70.3,26.1,25.00,East,94,0.0,-999.0,19,-99.99,,,-99.99,dwt +perl,2013-10-19 21:24:00,
2013-10-19 14:29:00,70.4,26.2,25.00,NE,52,1.0,-999.0,19,-99.99,,,-99.99,dwt +perl,2013-10-19 21:29:00,
2013-10-19 14:34:00,69.9,25.8,25.00,ENE,70,0.0,-999.0,19,-99.99,,,-99.99,dwt +perl,2013-10-19 21:34:00,
2013-10-19 14:39:00,70.3,26.1,25.00,ESE,104,1.0,-999.0,19,-99.99,,,-99.99,dwt +perl,2013-10-19 21:39:00,
2013-10-19 14:43:00,71.0,26.7,25.00,East,90,0.0,-999.0,19,-99.99,,,-99.99,dwt +perl,2013-10-19 21:43:00,
2013-10-19 14:44:00,70.6,25.0,25.00,East,90,1.0,-999.0,18,-99.99,,,-99.99,dwt +perl,2013-10-19 21:44:00,
2013-10-19 14:49:00,70.8,26.5,25.00,East,91,0.0,-999.0,19,-99.99,,,-99.99,dwt +perl,2013-10-19 21:49:00,
2013-10-19 14:59:00,71.1,26.7,24.99,SE,146,0.0,-999.0,19,-99.99,,,-99.99,dwt +perl,2013-10-19 21:59:00,
2013-10-19 15:04:00,71.2,26.8,24.99,SE,146,0.0,-999.0,19,-99.99,,,-99.99,dwt +perl,2013-10-19 22:04:00,
2013-10-19 15:09:00,71.2,26.8,24.99,ESE,106,2.0,-999.0,19,-99.99,,,-99.99,dwt +perl,2013-10-19 22:09:00,
2013-10-19 15:14:00,71.4,29.4,24.99,ESE,116,1.0,-999.0,21,-99.99,,,-99.99,dwt +perl,2013-10-19 22:14:00,
2013-10-19 15:19:00,71.9,28.6,24.99,South,179,2.0,-999.0,20,-99.99,,,-99.99,dwt +perl,2013-10-19 22:19:00,
2013-10-19 15:24:00,71.9,29.8,24.99,ESE,123,3.0,-999.0,21,-99.99,,,-99.99,dwt +perl,2013-10-19 22:24:00,
2013-10-19 15:29:00,71.7,28.5,24.99,South,172,2.0,-999.0,20,-99.99,,,-99.99,dwt +perl,2013-10-19 22:29:00,
2013-10-19 15:34:00,71.7,28.5,24.99,South,172,3.0,-999.0,20,-99.99,,,-99.99,dwt +perl,2013-10-19 22:34:00,
2013-10-19 15:39:00,71.2,29.3,24.99,SE,143,1.0,-999.0,21,-99.99,,,-99.99,dwt +perl,2013-10-19 22:39:00,
2013-10-19 15:44:00,71.2,29.3,24.99,SSW,202,1.0,-999.0,21,-99.99,,,-99.99,dwt +perl,2013-10-19 22:44:00,
2013-10-19 15:49:00,71.1,29.2,24.99,SSW,201,1.0,-999.0,21,-99.99,,,-99.99,dwt +perl,2013-10-19 22:49:00,
2013-10-19 15:54:00,71.0,30.2,24.99,WSW,249,3.0,-999.0,22,-99.99,,,-99.99,dwt +perl,2013-10-19 22:54:00,
2013-10-19 15:59:00,71.1,30.3,24.99,SW,224,4.0,-999.0,22,-99.99,,,-99.99,dwt +perl,2013-10-19 22:59:00,
2013-10-19 16:03:00,68.6,30.4,24.99,SW,225,10.0,-999.0,24,-99.99,,,-99.99,dwt +perl,2013-10-19 23:03:00,
2013-10-19 16:04:00,70.6,31.0,24.99,SW,214,11.0,-999.0,23,-99.99,,,-99.99,dwt +perl,2013-10-19 23:04:00,
2013-10-19 16:13:00,69.2,29.8,24.99,SW,223,3.0,-999.0,23,-99.99,,,-99.99,dwt +perl,2013-10-19 23:13:00,
2013-10-19 16:19:00,69.1,30.8,24.99,SW,222,1.0,-999.0,24,-99.99,,,-99.99,dwt +perl,2013-10-19 23:19:00,
2013-10-19 16:28:00,68.7,29.4,24.99,SW,233,5.0,-999.0,23,-99.99,,,-99.99,dwt +perl,2013-10-19 23:28:00,
2013-10-19 16:29:00,69.0,28.6,24.99,SW,217,0.0,-999.0,22,-99.99,,,-99.99,dwt +perl,2013-10-19 23:29:00,
2013-10-19 16:34:00,68.8,30.5,24.99,SW,226,2.0,-999.0,24,-99.99,,,-99.99,dwt +perl,2013-10-19 23:34:00,
2013-10-19 16:38:00,67.7,29.6,24.99,SW,223,7.0,-999.0,24,-99.99,,,-99.99,dwt +perl,2013-10-19 23:38:00,
2013-10-19 16:44:00,68.6,29.3,24.99,SW,234,6.0,-999.0,23,-99.99,,,-99.99,dwt +perl,2013-10-19 23:44:00,
2013-10-19 16:54:00,67.2,29.2,24.99,WSW,239,6.0,-999.0,24,-99.99,,,-99.99,dwt +perl,2013-10-19 23:54:00,
2013-10-19 16:59:00,66.7,28.8,24.99,WSW,239,7.0,-999.0,24,-99.99,,,-99.99,dwt +perl,2013-10-19 23:59:00,
2013-10-19 17:04:00,66.7,29.8,24.99,SW,231,8.0,-999.0,25,-99.99,,,-99.99,dwt +perl,2013-10-20 00:04:00,
2013-10-19 17:09:00,66.6,30.6,24.99,WSW,254,5.0,-999.0,26,-99.99,,,-99.99,dwt +perl,2013-10-20 00:09:00,
2013-10-19 17:14:00,66.4,30.5,24.99,SW,227,9.0,-999.0,26,-99.99,,,-99.99,dwt +perl,2013-10-20 00:14:00,
2013-10-19 17:19:00,66.9,29.9,24.99,SW,217,5.0,-999.0,25,-99.99,,,-99.99,dwt +perl,2013-10-20 00:19:00,
2013-10-19 17:24:00,66.6,29.7,24.99,SSW,210,7.0,-999.0,25,-99.99,,,-99.99,dwt +perl,2013-10-20 00:24:00,
2013-10-19 17:29:00,66.3,30.4,24.98,SW,217,7.0,-999.0,26,-99.99,,,-99.99,dwt +perl,2013-10-20 00:29:00,
2013-10-19 17:34:00,66.0,30.1,24.98,SW,215,5.0,-999.0,26,-99.99,,,-99.99,dwt +perl,2013-10-20 00:34:00,
2013-10-19 17:39:00,65.5,29.7,24.98,SW,215,4.0,-999.0,26,-99.99,,,-99.99,dwt +perl,2013-10-20 00:39:00,
2013-10-19 17:44:00,65.4,30.5,24.98,SW,215,5.0,-999.0,27,-99.99,,,-99.99,dwt +perl,2013-10-20 00:44:00,
2013-10-19 17:48:00,64.4,28.8,24.98,SW,218,1.0,-999.0,26,-99.99,,,-99.99,dwt +perl,2013-10-20 00:48:00,
2013-10-19 17:49:00,65.1,29.4,24.98,SW,216,6.0,-999.0,26,-99.99,,,-99.99,dwt +perl,2013-10-20 00:49:00,
2013-10-19 17:54:00,64.6,28.9,24.98,SW,218,1.0,-999.0,26,-99.99,,,-99.99,dwt +perl,2013-10-20 00:54:00,
2013-10-19 18:04:00,64.2,28.6,24.98,SW,218,2.0,-999.0,26,-99.99,,,-99.99,dwt +perl,2013-10-20 01:04:00,
2013-10-19 18:09:00,63.9,27.4,24.98,SW,218,3.0,-999.0,25,-99.99,,,-99.99,dwt +perl,2013-10-20 01:09:00,
2013-10-19 18:14:00,63.5,28.0,24.98,SW,218,3.0,-999.0,26,-99.99,,,-99.99,dwt +perl,2013-10-20 01:14:00,
2013-10-19 18:19:00,63.3,29.6,24.98,SW,218,3.0,-999.0,28,-99.99,,,-99.99,dwt +perl,2013-10-20 01:19:00,
2013-10-19 18:24:00,62.7,27.3,24.98,SW,218,5.0,-999.0,26,-99.99,,,-99.99,dwt +perl,2013-10-20 01:24:00,
2013-10-19 18:29:00,62.3,27.0,24.98,SW,218,4.0,-999.0,26,-99.99,,,-99.99,dwt +perl,2013-10-20 01:29:00,
2013-10-19 18:34:00,61.9,25.7,24.98,SW,218,3.0,-999.0,25,-99.99,,,-99.99,dwt +perl,2013-10-20 01:34:00,
2013-10-19 18:38:00,61.6,26.4,24.98,SW,218,0.0,-999.0,26,-99.99,,,-99.99,dwt +perl,2013-10-20 01:38:00,
2013-10-19 18:39:00,61.7,25.5,24.98,SW,218,0.0,-999.0,25,-99.99,,,-99.99,dwt +perl,2013-10-20 01:39:00,
2013-10-19 18:44:00,61.7,25.5,24.98,SW,218,0.0,-999.0,25,-99.99,,,-99.99,dwt +perl,2013-10-20 01:44:00,
2013-10-19 18:54:00,61.5,27.2,24.98,SW,218,0.0,-999.0,27,-99.99,,,-99.99,dwt +perl,2013-10-20 01:54:00,
2013-10-19 18:58:00,61.4,26.2,24.99,SW,216,0.0,-999.0,26,-99.99,,,-99.99,dwt +perl,2013-10-20 01:58:00,
2013-10-19 18:59:00,61.4,26.2,24.98,SW,218,1.0,-999.0,26,-99.99,,,-99.99,dwt +perl,2013-10-20 01:59:00,
2013-10-19 19:04:00,61.4,26.2,24.98,SW,216,2.0,-999.0,26,-99.99,,,-99.99,dwt +perl,2013-10-20 02:04:00,
2013-10-19 19:14:00,61.3,25.2,24.99,SW,216,2.0,-999.0,25,-99.99,,,-99.99,dwt +perl,2013-10-20 02:14:00,
2013-10-19 19:18:00,61.2,26.0,24.99,SW,216,0.0,-999.0,26,-99.99,,,-99.99,dwt +perl,2013-10-20 02:18:00,
2013-10-19 19:19:00,61.2,25.1,24.99,SW,216,2.0,-999.0,25,-99.99,,,-99.99,dwt +perl,2013-10-20 02:19:00,
2013-10-19 19:34:00,61.3,26.1,24.99,SW,216,0.0,-999.0,26,-99.99,,,-99.99,dwt +perl,2013-10-20 02:34:00,
2013-10-19 19:39:00,61.4,25.3,24.99,SW,216,1.0,-999.0,25,-99.99,,,-99.99,dwt +perl,2013-10-20 02:39:00,
2013-10-19 19:44:00,61.6,24.5,24.99,SW,216,1.0,-999.0,24,-99.99,,,-99.99,dwt +perl,2013-10-20 02:44:00,
2013-10-19 19:49:00,61.8,23.6,24.99,SW,216,1.0,-999.0,23,-99.99,,,-99.99,dwt +perl,2013-10-20 02:49:00,
2013-10-19 19:53:00,61.7,23.5,24.99,SW,216,1.0,-999.0,23,-99.99,,,-99.99,dwt +perl,2013-10-20 02:53:00,
2013-10-19 19:54:00,62.0,24.8,24.99,SW,216,1.0,-999.0,24,-99.99,,,-99.99,dwt +perl,2013-10-20 02:54:00,
2013-10-19 19:59:00,61.9,23.7,24.99,SW,216,1.0,-999.0,23,-99.99,,,-99.99,dwt +perl,2013-10-20 02:59:00,
2013-10-19 20:09:00,61.6,23.5,24.99,SW,216,2.0,-999.0,23,-99.99,,,-99.99,dwt +perl,2013-10-20 03:09:00,
2013-10-19 20:14:00,61.6,24.5,24.99,SW,216,1.0,-999.0,24,-99.99,,,-99.99,dwt +perl,2013-10-20 03:14:00,
2013-10-19 20:19:00,61.5,24.4,24.99,SW,216,1.0,-999.0,24,-99.99,,,-99.99,dwt +perl,2013-10-20 03:19:00,
2013-10-19 20:24:00,61.6,24.5,24.99,SW,216,1.0,-999.0,24,-99.99,,,-99.99,dwt +perl,2013-10-20 03:24:00,
2013-10-19 20:29:00,61.4,24.3,24.99,SW,216,0.0,-999.0,24,-99.99,,,-99.99,dwt +perl,2013-10-20 03:29:00,
2013-10-19 20:33:00,61.0,24.0,25.00,SW,216,0.0,-999.0,24,-99.99,,,-99.99,dwt +perl,2013-10-20 03:33:00,
2013-10-19 20:34:00,61.2,24.1,24.99,SW,216,1.0,-999.0,24,-99.99,,,-99.99,dwt +perl,2013-10-20 03:34:00,
2013-10-19 20:39:00,61.1,24.0,25.00,SW,216,0.0,-999.0,24,-99.99,,,-99.99,dwt +perl,2013-10-20 03:39:00,
2013-10-19 20:43:00,60.9,23.9,25.00,SW,216,0.0,-999.0,24,-99.99,,,-99.99,dwt +perl,2013-10-20 03:43:00,
2013-10-19 20:49:00,61.0,24.0,25.00,SW,216,0.0,-999.0,24,-99.99,,,-99.99,dwt +perl,2013-10-20 03:49:00,
2013-10-19 20:53:00,60.9,22.9,25.00,SW,216,0.0,-999.0,23,-99.99,,,-99.99,dwt +perl,2013-10-20 03:53:00,
2013-10-19 20:58:00,60.9,23.9,25.00,SW,216,2.0,-999.0,24,-99.99,,,-99.99,dwt +perl,2013-10-20 03:58:00,
2013-10-19 20:59:00,60.9,22.9,25.00,SW,216,1.0,-999.0,23,-99.99,,,-99.99,dwt +perl,2013-10-20 03:59:00,
2013-10-19 21:03:00,60.8,23.8,25.00,SW,216,2.0,-999.0,24,-99.99,,,-99.99,dwt +perl,2013-10-20 04:03:00,
2013-10-19 21:08:00,60.6,23.6,25.00,SW,216,1.0,-999.0,24,-99.99,,,-99.99,dwt +perl,2013-10-20 04:08:00,
2013-10-19 21:13:00,60.4,23.5,25.00,SW,216,1.0,-999.0,24,-99.99,,,-99.99,dwt +perl,2013-10-20 04:13:00,
2013-10-19 21:18:00,60.5,24.5,25.00,SW,216,2.0,-999.0,25,-99.99,,,-99.99,dwt +perl,2013-10-20 04:18:00,
2013-10-19 21:23:00,60.7,25.6,25.00,SW,216,2.0,-999.0,26,-99.99,,,-99.99,dwt +perl,2013-10-20 04:23:00,
2013-10-19 21:28:00,60.9,25.8,25.00,SW,216,1.0,-999.0,26,-99.99,,,-99.99,dwt +perl,2013-10-20 04:28:00,
2013-10-19 21:33:00,61.0,25.9,25.00,SW,216,1.0,-999.0,26,-99.99,,,-99.99,dwt +perl,2013-10-20 04:33:00,
2013-10-19 21:38:00,61.1,25.0,25.00,SW,216,3.0,-999.0,25,-99.99,,,-99.99,dwt +perl,2013-10-20 04:38:00,
2013-10-19 21:43:00,60.9,24.8,25.00,SW,216,3.0,-999.0,25,-99.99,,,-99.99,dwt +perl,2013-10-20 04:43:00,
2013-10-19 21:48:00,60.8,24.8,25.00,SW,216,4.0,-999.0,25,-99.99,,,-99.99,dwt +perl,2013-10-20 04:48:00,
2013-10-19 21:53:00,60.7,25.6,25.00,SW,216,4.0,-999.0,26,-99.99,,,-99.99,dwt +perl,2013-10-20 04:53:00,
2013-10-19 21:58:00,60.6,25.5,25.00,SW,216,4.0,-999.0,26,-99.99,,,-99.99,dwt +perl,2013-10-20 04:58:00,
2013-10-19 22:03:00,60.6,25.5,25.00,SW,216,4.0,-999.0,26,-99.99,,,-99.99,dwt +perl,2013-10-20 05:03:00,
2013-10-19 22:08:00,60.6,25.5,25.00,SW,216,4.0,-999.0,26,-99.99,,,-99.99,dwt +perl,2013-10-20 05:08:00,
2013-10-19 22:13:00,60.6,25.5,25.00,SW,216,4.0,-999.0,26,-99.99,,,-99.99,dwt +perl,2013-10-20 05:13:00,
2013-10-19 22:18:00,60.6,25.5,25.00,SW,216,4.0,-999.0,26,-99.99,,,-99.99,dwt +perl,2013-10-20 05:18:00,
2013-10-19 22:23:00,60.6,25.5,25.00,SW,216,3.0,-999.0,26,-99.99,,,-99.99,dwt +perl,2013-10-20 05:23:00,
2013-10-19 22:28:00,60.5,25.5,25.00,SW,216,4.0,-999.0,26,-99.99,,,-99.99,dwt +perl,2013-10-20 05:28:00,
2013-10-19 22:33:00,60.5,25.5,25.00,SW,216,4.0,-999.0,26,-99.99,,,-99.99,dwt +perl,2013-10-20 05:33:00,
2013-10-19 22:38:00,60.6,24.6,25.00,SW,216,4.0,-999.0,25,-99.99,,,-99.99,dwt +perl,2013-10-20 05:38:00,
2013-10-19 22:43:00,60.5,25.5,25.00,SW,216,4.0,-999.0,26,-99.99,,,-99.99,dwt +perl,2013-10-20 05:43:00,
2013-10-19 22:48:00,60.5,24.5,25.00,SW,216,5.0,-999.0,25,-99.99,,,-99.99,dwt +perl,2013-10-20 05:48:00,
2013-10-19 22:53:00,60.5,24.5,25.00,SW,216,5.0,-999.0,25,-99.99,,,-99.99,dwt +perl,2013-10-20 05:53:00,
2013-10-19 22:58:00,60.4,24.4,25.00,SW,216,4.0,-999.0,25,-99.99,,,-99.99,dwt +perl,2013-10-20 05:58:00,
2013-10-19 23:03:00,60.2,24.2,25.00,SW,216,4.0,-999.0,25,-99.99,,,-99.99,dwt +perl,2013-10-20 06:03:00,
2013-10-19 23:08:00,60.2,24.2,25.00,SW,216,4.0,-999.0,25,-99.99,,,-99.99,dwt +perl,2013-10-20 06:08:00,
2013-10-19 23:13:00,60.1,24.2,25.00,SW,216,5.0,-999.0,25,-99.99,,,-99.99,dwt +perl,2013-10-20 06:13:00,
2013-10-19 23:18:00,60.0,24.1,25.00,SW,216,4.0,-999.0,25,-99.99,,,-99.99,dwt +perl,2013-10-20 06:18:00,
2013-10-19 23:23:00,59.9,24.0,25.00,SSE,152,5.0,-999.0,25,-99.99,,,-99.99,dwt +perl,2013-10-20 06:23:00,
2013-10-19 23:28:00,60.0,25.0,25.00,East,95,6.0,-999.0,26,-99.99,,,-99.99,dwt +perl,2013-10-20 06:28:00,
2013-10-19 23:33:00,59.8,26.6,25.00,East,96,5.0,-999.0,28,-99.99,,,-99.99,dwt +perl,2013-10-20 06:33:00,
2013-10-19 23:38:00,59.8,27.5,25.00,East,96,7.0,-999.0,29,-99.99,,,-99.99,dwt +perl,2013-10-20 06:38:00,
2013-10-19 23:43:00,59.6,28.1,24.99,East,79,6.0,-999.0,30,-99.99,,,-99.99,dwt +perl,2013-10-20 06:43:00,
2013-10-19 23:48:00,59.5,28.0,24.99,ENE,73,7.0,-999.0,30,-99.99,,,-99.99,dwt +perl,2013-10-20 06:48:00,
2013-10-19 23:53:00,59.3,28.7,24.99,ENE,73,7.0,-999.0,31,-99.99,,,-99.99,dwt +perl,2013-10-20 06:53:00,
2013-10-19 23:58:00,59.3,28.7,24.99,ENE,72,7.0,-999.0,31,-99.99,,,-99.99,dwt +perl,2013-10-20 06:58:00,